Weather History for KMZZ - November, 2012

Change the Weather History Date:

Sunday, November 4, 2012

  Actual Average (KMIE) Record (KMIE)
Temperature  
Mean Temperature 34 °F 48 °F  
Max Temperature 41 °F 57 °F 77 °F (2003)
Min Temperature 28 °F 38 °F 17 °F (1991)
Degree Days  
Heating Degree Days 30 17  
Month to date heating degree days 67  
Since 1 July heating degree days 531  
Cooling Degree Days 0 0  
Month to date cooling degree days 0  
Year to date cooling degree days 955  
Moisture  
Dew Point 29 °F    
Average Humidity 77    
Maximum Humidity 92    
Minimum Humidity 59    
Precipitation  
Precipitation 0.00 in 0.10 in 1.76 in (1988)
Month to date precipitation 0.42  
Year to date precipitation 34.21  
Sea Level Pressure  
Sea Level Pressure 30.17 in    
Wind  
Wind Speed 5 mph (NNE)    
Max Wind Speed 10 mph    
Max Gust Speed -    
Visibility 9 miles    
Events Snow    
T = Trace of Precipitation, MM = Missing Value Source: NWS Daily Summary

Daily Weather History Graph

Daily Weather History Graph

Search for Another Location

Airport or City:

Trip Planner

Search our weather history database for the weather conditions in past years. The results will help you decide how hot, cold, wet, or windy it might be!

Date:

Astronomy

Nov. 04, 2012 Rise Set
Actual Time 7:16 AM EST 5:35 PM EST
Civil Twilight 6:48 AM EST 6:03 PM EST
Nautical Twilight 6:15 AM EST 6:36 PM EST
Astronomical Twilight 5:43 AM EST 7:08 PM EST
Moon 10:12 PM EST (11/4) 12:00 PM EST (11/4)
Length of Visible Light 11h 15m
Length of Day
10h 18m
Waning Gibbous, 72% of the Moon is Illuminated
Nov 4
Waning Gibbous
Nov 6
Last Quarter
Nov 13
New
Nov 20
First Quarter
Nov 28
Full

Hourly Weather History & Observations

Time (EST) Temp. Windchill Dew Point Humidity Pressure Visibility Wind Dir Wind Speed Gust Speed Precip Events Conditions
12:15 AM 35.6 °F 31.7 °F 30.4 °F 81% 30.16 in 7.0 mi NE 4.6 mph - N/A   Scattered Clouds
12:35 AM 34.2 °F 30.0 °F 30.0 °F 85% 30.16 in 10.0 mi NE 4.6 mph - N/A   Scattered Clouds
12:55 AM 33.4 °F 29.1 °F 29.8 °F 87% 30.16 in 10.0 mi NNE 4.6 mph - N/A   Scattered Clouds
1:15 AM 33.4 °F 28.1 °F 29.8 °F 87% 30.16 in 10.0 mi NNE 5.8 mph - N/A   Scattered Clouds
1:35 AM 33.6 °F 28.4 °F 29.5 °F 85% 30.16 in 7.0 mi NNE 5.8 mph - N/A   Clear
1:55 AM 33.8 °F 29.6 °F 29.1 °F 83% 30.16 in 10.0 mi NE 4.6 mph - N/A   Clear
1:15 AM 32.9 °F 27.5 °F 28.9 °F 85% 30.16 in 10.0 mi NNE 5.8 mph - N/A   Clear
1:35 AM 32.4 °F 27.9 °F 28.8 °F 87% 30.16 in 10.0 mi NNE 4.6 mph - N/A   Clear
1:55 AM 32.4 °F 27.9 °F 28.6 °F 86% 30.16 in 10.0 mi NNE 4.6 mph - N/A   Clear
2:15 AM 32.0 °F 27.5 °F 28.2 °F 86% 30.16 in 7.0 mi NNE 4.6 mph - N/A Snow Light Snow
2:35 AM 32.0 °F 27.5 °F 28.4 °F 87% 30.17 in 7.0 mi North 4.6 mph - N/A   Clear
2:55 AM 32.0 °F 28.7 °F 28.2 °F 86% 30.17 in 10.0 mi North 3.5 mph - N/A   Clear
3:15 AM 31.8 °F 28.5 °F 27.9 °F 85% 30.17 in 7.0 mi North 3.5 mph - N/A   Clear
3:35 AM 30.9 °F 27.5 °F 27.7 °F 88% 30.17 in 7.0 mi North 3.5 mph - N/A   Clear
4:15 AM 31.3 °F 27.9 °F 27.9 °F 87% 30.17 in 7.0 mi North 3.5 mph - N/A   Clear
4:35 AM 30.6 °F - 27.3 °F 88% 30.17 in 7.0 mi Calm Calm - N/A   Clear
4:55 AM 30.2 °F - 27.3 °F 89% 30.17 in 10.0 mi Calm Calm - N/A   Clear
5:15 AM 29.8 °F - 27.1 °F 90% 30.17 in 10.0 mi Calm Calm - N/A   Scattered Clouds
5:35 AM 29.8 °F - 27.1 °F 90% 30.17 in 10.0 mi Calm Calm - N/A   Clear
6:15 AM 28.6 °F - 26.6 °F 92% 30.18 in 7.0 mi Calm Calm - N/A   Clear
6:35 AM 29.5 °F 24.5 °F 27.3 °F 92% 30.18 in 10.0 mi North 4.6 mph - N/A   Clear
7:15 AM 29.3 °F 24.3 °F 26.8 °F 90% 30.19 in 7.0 mi North 4.6 mph - N/A   Scattered Clouds
7:35 AM 29.1 °F 25.4 °F 26.8 °F 91% 30.19 in 10.0 mi North 3.5 mph - N/A   Overcast
7:55 AM 29.3 °F 25.6 °F 27.1 °F 92% 30.19 in 7.0 mi North 3.5 mph - N/A   Mostly Cloudy
8:15 AM 29.8 °F 26.3 °F 27.3 °F 90% 30.20 in 7.0 mi North 3.5 mph - N/A   Overcast
8:35 AM 30.4 °F 25.6 °F 27.5 °F 89% 30.20 in 7.0 mi North 4.6 mph - N/A   Overcast
8:55 AM 31.1 °F 25.4 °F 28.0 °F 88% 30.20 in 7.0 mi NNE 5.8 mph - N/A   Overcast
9:15 AM 31.8 °F 27.3 °F 28.2 °F 87% 30.21 in 7.0 mi North 4.6 mph - N/A   Overcast
9:35 AM 32.0 °F 27.5 °F 28.4 °F 87% 30.21 in 7.0 mi North 4.6 mph - N/A   Overcast
9:55 AM 32.5 °F - 28.9 °F 87% 30.21 in 10.0 mi Calm Calm - N/A   Overcast
10:15 AM 33.6 °F 27.5 °F 28.9 °F 83% 30.21 in 10.0 mi NE 6.9 mph - N/A   Overcast
10:35 AM 34.3 °F 26.5 °F 28.9 °F 81% 30.21 in 10.0 mi ENE 10.4 mph - N/A   Mostly Cloudy
10:55 AM 35.4 °F 27.8 °F 28.8 °F 77% 30.20 in 10.0 mi ENE 10.4 mph - N/A   Scattered Clouds
11:35 AM 38.1 °F 32.3 °F 29.3 °F 71% 30.20 in 7.0 mi East 8.1 mph - N/A   Mostly Cloudy
11:55 AM 38.5 °F 33.4 °F 29.3 °F 70% 30.20 in 7.0 mi NE 6.9 mph - N/A   Mostly Cloudy
12:15 PM 39.0 °F 32.8 °F 29.3 °F 68% 30.19 in 10.0 mi NE 9.2 mph - N/A   Scattered Clouds
12:35 PM 39.4 °F 33.8 °F 30.0 °F 69% 30.19 in 7.0 mi NNE 8.1 mph - N/A   Scattered Clouds
12:55 PM 40.1 °F 34.7 °F 30.4 °F 68% 30.19 in 5.0 mi NNE 8.1 mph - N/A   Haze
1:15 PM 40.1 °F 36.1 °F 29.5 °F 66% 30.18 in 7.0 mi NW 5.8 mph - N/A   Overcast
1:35 PM 41.0 °F 38.0 °F 29.7 °F 64% 30.18 in 10.0 mi North 4.6 mph - N/A   Overcast
1:55 PM 41.2 °F 35.5 °F 29.3 °F 63% 30.17 in 7.0 mi North 9.2 mph - N/A   Overcast
2:15 PM 40.8 °F 34.5 °F 29.3 °F 64% 30.17 in 10.0 mi NNE 10.4 mph - N/A   Overcast
2:35 PM 40.8 °F 35.6 °F 28.8 °F 62% 30.17 in 7.0 mi NNW 8.1 mph - N/A   Overcast
2:55 PM 41.0 °F 36.4 °F 29.1 °F 63% 30.17 in 7.0 mi North 6.9 mph - N/A   Overcast
3:15 PM 40.8 °F 36.2 °F 28.4 °F 61% 30.16 in 7.0 mi NNW 6.9 mph - N/A   Overcast
3:35 PM 40.8 °F 36.2 °F 28.8 °F 62% 30.16 in 7.0 mi North 6.9 mph - N/A   Overcast
3:55 PM 41.0 °F 36.4 °F 28.2 °F 60% 30.16 in 10.0 mi NNW 6.9 mph - N/A   Overcast
4:15 PM 40.8 °F 36.2 °F 27.7 °F 60% 30.16 in 10.0 mi North 6.9 mph - N/A   Overcast
4:35 PM 40.6 °F 35.4 °F 27.3 °F 59% 30.16 in 7.0 mi North 8.1 mph - N/A   Overcast
4:55 PM 40.5 °F 35.8 °F 27.5 °F 60% 30.16 in 10.0 mi North 6.9 mph - N/A   Overcast
5:15 PM 40.1 °F 35.3 °F 28.4 °F 63% 30.16 in 7.0 mi North 6.9 mph - N/A   Overcast
5:35 PM 39.9 °F 35.8 °F 28.4 °F 63% 30.16 in 7.0 mi North 5.8 mph - N/A   Overcast
5:55 PM 39.7 °F 35.6 °F 29.1 °F 66% 30.16 in 7.0 mi NNE 5.8 mph - N/A   Overcast
6:15 PM 39.4 °F - 29.1 °F 67% 30.16 in 10.0 mi Calm Calm - N/A   Overcast
6:35 PM 39.2 °F - 29.5 °F 68% 30.17 in 7.0 mi Calm Calm - N/A   Overcast
6:55 PM 38.8 °F - 29.3 °F 69% 30.17 in 10.0 mi Calm Calm - N/A   Overcast
7:15 PM 39.0 °F - 28.4 °F 66% 30.17 in 10.0 mi Calm Calm - N/A   Overcast
7:35 PM 38.5 °F - 28.9 °F 69% 30.17 in 10.0 mi Calm Calm - N/A   Overcast
7:55 PM 37.4 °F - 30.2 °F 75% 30.18 in 10.0 mi Calm Calm - N/A   Overcast
8:15 PM 36.7 °F 34.1 °F 31.1 °F 80% 30.17 in 10.0 mi WNW 3.5 mph - N/A   Overcast
8:35 PM 36.9 °F - 30.7 °F 79% 30.17 in 10.0 mi Calm Calm - N/A   Overcast
8:55 PM 37.6 °F 35.1 °F 29.3 °F 72% 30.17 in 10.0 mi North 3.5 mph - N/A   Overcast
9:15 PM 37.4 °F - 28.9 °F 71% 30.17 in 10.0 mi Calm Calm - N/A   Overcast
9:35 PM 36.3 °F - 28.6 °F 74% 30.17 in 10.0 mi Calm Calm - N/A   Scattered Clouds
9:55 PM 36.3 °F 31.6 °F 27.3 °F 70% 30.17 in 10.0 mi North 5.8 mph - N/A   Clear
10:15 PM 34.2 °F 29.0 °F 27.5 °F 77% 30.16 in 10.0 mi NNE 5.8 mph - N/A   Clear
10:35 PM 34.0 °F 31.0 °F 27.5 °F 77% 30.17 in 10.0 mi North 3.5 mph - N/A   Clear
10:55 PM 32.7 °F - 27.3 °F 81% 30.17 in 10.0 mi Calm Calm - N/A   Clear